Simultaneous Nadir Overpasses (SNOs) Predictions

Prediction of SNOs near equator between AQUA and NPP Satellite Orbit:

Table of predicted SNOs near equator for the next 14.0 days since TLE Epoch: 10/19/2012
Index Date (AQUA) Time (AQUA) AQUA Lat,Lon Date (NPP) Time (NPP) NPP Lat,Lon Distance(km) Time Diff (sec)
1 10/20/2012 01:47:25 3.61, 176.42 10/20/2012 01:38:08 3.44, 175.69 83.02 557
2 10/22/2012 17:16:04 -9.74, 123.37 10/22/2012 17:06:04 -9.81, 122.72 71.16 600
3 10/22/2012 18:03:27 2.00, -67.36 10/22/2012 17:54:37 1.81, -68.18 93.93 530
4 10/25/2012 09:31:13 -4.93,-119.72 10/25/2012 09:21:35 -4.79,-120.38 74.57 578
5 10/28/2012 01:47:14 -3.27, -3.48 10/28/2012 01:38:03 -3.12, -4.24 85.36 551
6 10/30/2012 17:15:08 6.21, -55.89 10/30/2012 17:05:08 6.10, -56.47 65.67 600
7 10/30/2012 18:03:15 -1.68, 112.74 10/30/2012 17:54:30 -1.47, 111.90 96.10 525
8 11/02/2012 09:31:10 4.63, 60.33 11/02/2012 09:21:36 4.47, 59.66 76.38 574




NCC Satellite Simultaneous Nadir Overpasses (SNOs) Prediction Service
